This demonstration page uses our WeatherBlox Daily Observations layout. Learn more.

Left ArrowRight Arrow

44.8408, -93.29828

Hourly Observations for May 21, 2021

Temp ( °F °C ) Dew Point ( °F °C ) Humidity (%) Winds ( mph kmh ) Pressure ( in mb ) Visibility ( mi km ) Precip ( " mm )
12:14 am 00:14 Cloudy with Light Rain 68 20 66 18.9 93 93 S 14 22 30.03 1017 10 16 0.01 0.25
12:53 am 00:53 Cloudy with Light Rain 67 19.4 64 17.8 91 91 SSE 10 17 30.06 1018 10 16 0.01 0.25
1:53 am 01:53 Cloudy with Light Rain 65 18.3 64 17.8 97 97 SSE 7 11 30.06 1018 6 10 0.03 0.76
2:53 am 02:53 Cloudy with Light Rain 65 18.3 63 17.2 93 93 S 5 7 30.06 1018 10 16 0.06 1.52
3:53 am 03:53 Cloudy with Heavy Rain 64 17.8 63 17.2 96 96 SE 5 7 30.07 1018 3 5 0.08 2.03
4:43 am 04:43 Cloudy with Light Rain 64 17.8 63 17.2 96 96 Calm 30.06 1018 10 16 0.07 1.78
4:53 am 04:53 Cloudy 64 17.8 63 17.2 96 96 SE 6 9 30.06 1018 10 16 0.07 1.78
5:35 am 05:35 Cloudy with Rain 64 17.8 64 17.8 100 100 ESE 6 9 30.06 1018 2 3 0.04 1.02
5:38 am 05:38 Cloudy with Rain 64 17.8 64 17.8 100 100 ESE 6 9 30.06 1018 2 3 0.06 1.52
5:43 am 05:43 Cloudy with Light Rain 64 17.8 63 17.2 96 96 SSE 7 11 30.06 1018 4 6 0.07 1.78
5:50 am 05:50 Cloudy with Heavy Rain 63 17 63 17 100 100 SE 7 11 30.07 1018 2 3 0.07 1.78
5:53 am 05:53 Cloudy with Heavy Rain 63 17.2 63 17.2 100 100 SE 7 11 30.07 1018 1 2 0.12 3.05
6:01 am 06:01 Cloudy with Light Rain 63 17.2 63 17.2 100 100 ESE 6 9 30.07 1018 2 3 0.07 1.78
6:09 am 06:09 Cloudy with Light Rain 64 17.8 63 17.2 96 96 ESE 10 17 30.06 1018 10 16 0.07 1.78
6:17 am 06:17 Cloudy 64 17.8 63 17.2 96 96 ESE 9 15 30.06 1018 10 16 0.07 1.78
6:29 am 06:29 Cloudy with Light Rain 64 17.8 64 17.8 100 100 SE 8 13 30.07 1018 5 8 0.08 2.03
6:53 am 06:53 Cloudy with Mist and Fog 64 17.8 64 17.8 100 100 ESE 8 13 30.09 1019 4 6 0.08 2.03
7:09 am 07:09 Cloudy with Light Rain 64 17.8 64 17.8 100 100 SE 5 7 30.07 1018 6 10 0.00 0.00
7:22 am 07:22 Cloudy with Light Rain 65 18.3 64 17.8 97 97 VRB 3 6 30.08 1019 6 10 0.00 0.00
7:53 am 07:53 Cloudy with Light Rain 65 18.3 65 18.3 100 100 SSE 3 6 30.10 1019 4 6 0.05 1.27
7:58 am 07:58 Cloudy with Heavy Rain 65 18.3 65 18.3 100 100 SE 3 6 30.09 1019 1 2 0.00 0.00
8:01 am 08:01 Cloudy with Rain 65 18.3 65 18.3 100 100 SE 3 6 30.09 1019 3 5 0.03 0.76
8:53 am 08:53 Cloudy 67 19.4 66 18.9 97 97 S 6 9 30.12 1020 10 16 0.08 2.03
9:28 am 09:28 Cloudy 68 20 66 18.9 93 93 SSW 7 11 30.11 1020 10 16 0.00 0.00
9:53 am 09:53 Cloudy 68 20 67 19.4 96 96 SSW 8 13 30.12 1020 10 16 0.00 0.00
10:49 am 10:49 Mostly Cloudy 72 22 68 20 88 88 S 7 11 30.10 1019 10 16 0.00 0.00
10:53 am 10:53 Mostly Cloudy 72 22.2 68 20 87 87 S 7 11 30.11 1020 10 16 0.00 0.00
11:03 am 11:03 Cloudy 71 21.7 67 19.4 87 87 S 6 9 30.10 1019 10 16 0.00 0.00
11:11 am 11:11 Cloudy 72 22.2 68 20 87 87 S 7 11 30.10 1019 10 16 0.00 0.00
11:24 am 11:24 Cloudy 72 22.2 67 19.4 84 84 S 8 13 30.10 1019 10 16 0.00 0.00
11:53 am 11:53 Cloudy with Light Rain 72 22.2 67 19.4 84 84 S 16 26 30.12 1020 9 14 0.00 0.00
12:24 pm 12:24 Mostly Cloudy 73 22.8 68 20 84 84 S 14 22 30.10 1019 10 16 0.02 0.51
12:33 pm 12:33 Mostly Cloudy 73 22.8 68 20 84 84 S 10 17 30.10 1019 10 16 0.02 0.51
12:53 pm 12:53 Cloudy 74 23.3 68 20 82 82 S 13 20 30.12 1020 10 16 0.02 0.51
1:02 pm 13:02 Cloudy 74 23.3 67 19.4 79 79 S 9 15 30.10 1019 10 16 0.00 0.00
1:38 pm 13:38 Mostly Cloudy 75 23.9 66 18.9 74 74 S 16 26 30.10 1019 10 16 0.00 0.00
1:46 pm 13:46 Cloudy 75 23.9 66 18.9 74 74 S 18 30 30.10 1019 10 16 0.00 0.00
1:53 pm 13:53 Mostly Cloudy with Light Rain 74 23.3 68 20 82 82 S 14 22 30.12 1020 10 16 0.00 0.00
2:02 pm 14:02 Mostly Cloudy 75 23.9 67 19.4 76 76 S 13 20 30.10 1019 10 16 0.00 0.00
2:31 pm 14:31 Mostly Cloudy 76 24.4 67 19.4 74 74 S 15 24 30.09 1019 10 16 0.00 0.00
2:42 pm 14:42 Cloudy 74 23.3 66 18.9 76 76 S 14 22 30.10 1019 10 16 0.00 0.00
2:53 pm 14:53 Mostly Cloudy with Light Rain 75 23.9 67 19.4 76 76 S 15 24 30.11 1020 10 16 0.00 0.00
3:53 pm 15:53 Mostly Cloudy 78 25.6 66 18.9 67 67 S 13 20 30.11 1020 10 16 0.00 0.00
4:53 pm 16:53 Mostly Cloudy 79 26.1 66 18.9 65 65 SSW 12 19 30.11 1020 10 16 0.00 0.00
5:53 pm 17:53 Mostly Cloudy 79 26.1 66 18.9 65 65 SSW 9 15 30.11 1020 10 16 0.00 0.00
6:53 pm 18:53 Partly Cloudy 80 26.7 66 18.9 62 62 S 12 19 30.11 1020 10 16 0.00 0.00
7:53 pm 19:53 Partly Cloudy 79 26.1 66 18.9 65 65 S 8 13 30.11 1020 10 16 0.00 0.00
8:53 pm 20:53 Mostly Clear 77 25 67 19.4 71 71 S 10 17 30.12 1020 10 16 0.00 0.00
9:53 pm 21:53 Mostly Clear 75 23.9 67 19.4 76 76 S 9 15 30.14 1021 10 16 0.00 0.00
10:53 pm 22:53 Partly Cloudy 72 22.2 68 20 87 87 SSE 7 11 30.16 1021 10 16 0.00 0.00
11:53 pm 23:53 Partly Cloudy 73 22.8 67 19.4 81 81 S 9 15 30.16 1022 10 16 0.00 0.00

Powered by AerisWeather